Location: ???? ????
(31.2831°N, 45.5190°E)
Time: 04:24:06
(UTC+00:00)

Cosmos 1271 Rocket - Pass Details

Date: 24 February 2021
Orbit: 498 x 544 km, 81.2° (Epoch: 14 April)

Event Time Altitude Azimuth Distance (km) Brightness Sun altitude
Rises 16:56:23 0° 341° (NNW) 2,590 6.6 -27.2°
Reaches altitude 10° 16:58:38 10° 331° (NNW) 1,703 5.7 -27.7°
Enters shadow 17:01:20 30° 290° (WNW) 906 4.4 -28.3°
